Location: Moscow
(38.3171°N, 79.0889°W)
Time: 23:07:33
(UTC+00:00)

PSLV R/B - Pass Details

Date: 07 November 2025
Orbit: 561 x 589 km, 98.0° (Epoch: 14 December)

Event Time Altitude Azimuth Distance (km) Brightness Sun altitude
Rises 23:32:32 0° 157° (SSE) 2,783 6.8 -16.4°
Reaches altitude 10° 23:34:42 10° 154° (SSE) 1,884 5.9 -16.9°
Maximum altitude 23:38:43 59° 75° (ENE) 667 3.4 -17.6°
Drops below altitude 10° 23:42:43 10° 356° (N) 1,880 6.0 -18.4°
Sets 23:44:53 0° 352° (N) 2,778 6.9 -18.8°
